Regional Weather Roundup
Issued by NWS

Home | Current Version | Previous Version | Graphics & Text | Print | Product List | Glossary Off
Versions: 1 2 3 4 5 6 7 8 9 10 11 12 13 14 15 16 17 18 19 20 21 22 23 24 25 26 27 28 29 30 31 32 33 34 35 36 37 38 39 40 41 42 43 44 45 46 47 48 49 50

000
ASUS43 KMPX 280010
RWRMN
WEATHER ROUNDUP FOR MINNESOTA
NATIONAL WEATHER SERVICE TWIN CITIES/CHANHASSEN MN
700 PM CDT THU AUG 27 2015


NOTE: "FAIR" INDICATES FEW OR NO CLOUDS BELOW 12,000 FEET WITH NO
SIGNIFICANT WEATHER AND/OR OBSTRUCTIONS TO VISIBILITY. N/A MEANS
CURRENT SKY AND/OR WEATHER CONDITIONS ARE NOT AVAILABLE.

MNZ060>063-068>070-280100-
   Twin Cities Metro

CITY           SKY/WX    TMP DP  RH WIND       PRES   REMARKS
TWIN CITIES    MOCLDY    73  58  59 S13       30.01S
6HR MIN TEMP:  72; 6HR MAX TEMP:  76;

ST PAUL        MOCLDY    71  58  63 S14       30.02R
CRYSTAL        MOCLDY    74  59  59 S10       30.00R
BLAINE         MOCLDY    75  61  60 S12       30.01S
LAKEVILLE      MOCLDY    66  61  82 S5        30.03F
EDEN PRAIRIE   MOCLDY    71  60  68 S12       30.00S
6HR MIN TEMP:  71; 6HR MAX TEMP:  76;

SOUTH ST PAUL  PTCLDY    72  57  60 S8        30.02R
LAKE ELMO      FAIR      72  61  68 S8        30.03S
$$
MNZ001>005-007-008-013>017-022>024-027-028-280100-
   Northwest Minnesota

CITY           SKY/WX    TMP DP  RH WIND       PRES   REMARKS
BEMIDJI        CLOUDY    73  65  74 S5        29.95F
HALLOCK        SUNNY     77  63  61 S6        29.89F
ROSEAU         SUNNY     75  64  69 CALM      29.92S
WARROAD        SUNNY     70  64  83 CALM      29.93F
THIEF RVR FALL MOSUNNY  N/A N/A N/A SW6       29.92S
CROOKSTON      MOSUNNY   75  64  69 SW5       29.92F
FOSSTON        MOSUNNY   75  64  69 S5        29.95S
DETROIT LAKES  CLOUDY    73  64  73 S5        29.96F
MOORHEAD       CLOUDY    75  66  73 CALM      29.93S
PARK RAPIDS    CLOUDY    74  64  71 S6        29.96S
MAHNOMEN       FAIR      73  66  80 S3        29.94F
$$
MNZ006-009>011-018-025>026-280100-
   North Central Minnesota

CITY           SKY/WX    TMP DP  RH WIND       PRES   REMARKS
BAUDETTE       SUNNY     73  62  68 S6        29.93F
FLAG ISLAND    SUNNY     72  59  64 CALM      29.91F
INTL FALLS     PTCLDY    72  59  63 S3        29.95S
6HR MIN TEMP:  72; 6HR MAX TEMP:  76;

WASKISH        MOSUNNY   73  63  68 CALM      29.95S
BIG FORK       PTSUNNY   72  61  68 S6        29.97F
LONGVILLE      CLOUDY    70  64  83 CALM      29.97S
GRAND RAPIDS     N/A     72  61  68 S9        29.98F
CRANE LAKE     PTCLDY    68  63  83 S1        29.98F
COOK           MOCLDY    70  59  68 CALM      29.99S
WALKER         CLOUDY    71  64  79 CALM      29.96F
$$
MNZ012-019>021-037-280100-
   Northeast Minnesota

CITY           SKY/WX    TMP DP  RH WIND       PRES   REMARKS
DULUTH         MOCLDY    63  53  70 SE8       30.01F
6HR MIN TEMP:  63; 6HR MAX TEMP:  72;

ELY            MOCLDY    70  55  60 CALM      29.99F
HIBBING        CLOUDY    70  60  70 SE5       29.99F
EVELETH        MOCLDY    70  59  68 S5        30.01S
DULUTH HARBOR  MOCLDY    57  54  88 N5        30.02F
TWO HARBORS    MOCLDY    66  54  63 E3        30.00F
SILVER BAY     PTCLDY    66  54  63 SE3       30.00F
GRAND MARAIS     N/A     57  51  80 CALM      30.02S
G MARAIS ARPRT CLEAR     57  48  72 S3        30.06S
$$
MNZ029>031-032-039>041-046>048-054>057-064-280100-
   West Central Minnesota

CITY           SKY/WX    TMP DP  RH WIND       PRES   REMARKS
FERGUS FALLS   CLOUDY    72  64  78 SE5       29.93F
WHEATON        CLOUDY    72  66  83 CALM      29.95F
MORRIS         CLOUDY    73  70  88 CALM      29.94F
ALEXANDRIA     CLOUDY    73  66  78 S8        29.98S
ELBOW LAKE     FAIR      71  66  85 S5        29.95F
WADENA         CLOUDY    72  63  73 S5        29.96F
GLENWOOD       CLOUDY    72  66  83 S6        29.98S
APPLETON       CLOUDY    73  66  78 S3        29.94S
BENSON         CLOUDY    73  66  78 CALM      29.96S
ORTONVILLE     CLOUDY    73  68  83 SE3       29.94F
MADISON        CLOUDY    72  66  83 SE3       29.95S
WILLMAR        FAIR      72  66  83 SE5       29.99R
$$
MNZ033>034-036-042>043-049>051-058-059-280100-
   Central Minnesota

CITY           SKY/WX    TMP DP  RH WIND       PRES   REMARKS
ST CLOUD       PTSUNNY   71  62  73 S10       29.98S
6HR MIN TEMP:  71; 6HR MAX TEMP:  77;

SAUK CENTRE    FAIR      71  65  82 S5        29.97S
PAYNESVILLE    CLOUDY    69  62  79 E6        29.98F
AITKIN         CLOUDY    72  63  73 S6        29.97S
PINE RIVER     CLOUDY    72  63  73 S7        30.00S
BRAINERD       CLOUDY    71  62  73 S6        29.98S
STAPLES        CLOUDY    70  63  78 CALM      29.97F
LONG PRAIRIE   FAIR      70  64  83 SE5       29.97S
LITTLE FALLS   CLOUDY    72  61  68 S7        29.98S
LITCHFIELD     PTSUNNY   68  64  88 SE5       30.00R
BUFFALO        MOCLDY    70  60  71 SE5       30.01S
MAPLE LAKE     PTSUNNY   70  64  82 SE3       30.00F
$$
MNZ037-044-045-052-053-280100-
   East Central Minnesota

CITY           SKY/WX    TMP DP  RH WIND       PRES   REMARKS
PRINCETON      MOCLDY    73  63  68 SE6       29.99F
MORA           CLOUDY    70  59  68 SE3       30.01F
CAMBRIDGE      MOCLDY    73  61  64 SE5       29.98F
RUSH CITY      CLOUDY    69  62  77 SE5       30.01F
MOOSE LAKE     CLOUDY    70  59  68 S3        29.98F
HINCKLEY       FAIR      70  63  78 SE5       30.00F
CLOQUET        MOCLDY    66  57  72 E3        30.01S
MCGREGOR       CLOUDY    70  63  78 S6        29.99F
$$
MNZ071>073-080-081-089-090-097-098-280100-
   Southwest Minnesota

CITY           SKY/WX    TMP DP  RH WIND       PRES   REMARKS
MONTEVIDEO     CLOUDY    72  64  78 S5        29.98S
GRANITE FALLS  CLOUDY    67  64  89 SE7       29.98S
CANBY          CLOUDY    73  67  82 S10       29.95F
MARSHALL       CLOUDY    72  64  78 SW5       30.00R
REDWOOD FALLS  LGT RAIN  67  65  93 SE12      29.97F
OLIVIA         CLOUDY    68  63  83 S6        29.98R
PIPESTONE      DRIZZLE   70  66  88 SE9       30.00F
WINDOM         PTSUNNY   68  61  77 S12       30.02S
WORTHINGTON    CLOUDY    64  61  88 SE6       30.03S
JACKSON        FLURRIES  66  63  88 S5        30.05R
TRACY          CLOUDY    71  66  85 S8        29.99F
SLAYTON        LGT RAIN  68  66  92 S10       30.03S
$$
MNZ065>067-074>077-082>085-091>093-280100-
   South Central Minnesota

CITY           SKY/WX    TMP DP  RH WIND       PRES   REMARKS
MANKATO        CLOUDY    66  61  82 SE6       30.01F
NEW ULM        CLOUDY    66  63  88 S8        29.99S
ST JAMES       PTSUNNY   70  63  78 S12       30.00F
FAIRMONT       PTSUNNY   68  57  68 S7        30.02S
GLENCOE        CLOUDY    69  64  85 SE7       29.99S
FARIBAULT      CLOUDY    66  61  82 SE6       30.04F
OWATONNA       CLOUDY    66  59  77 SE5       30.04F
WASECA         CLOUDY    64  59  82 MISG      30.04F
ALBERT LEA     CLOUDY    68  57  68 S8        30.03F
$$
MNZ078>079-086>088-094>096-280100-
   Southeast Minnesota

CITY           SKY/WX    TMP DP  RH WIND       PRES   REMARKS
ROCHESTER      CLOUDY    67  60  78 S9        30.07R
6HR MIN TEMP:  67; 6HR MAX TEMP:  73;

RED WING       MOCLDY    73  59  60 SE7       30.01F
STANTON        MOCLDY    69  60  72 S5        30.03R
DODGE CENTER   CLOUDY    66  59  77 CALM      30.06R
WINONA         CLOUDY    73  61  64 SE7       30.04F
AUSTIN         CLOUDY    68  61  77 S6        30.04F
PRESTON        CLOUDY    67  59  73 S6        30.07F
$$
ABBREVIATIONS USED IN REMARKS
   TC - TEMPERATURES IN CELSIUS
  WCI - WIND CHILL INDEX
   HX - HEAT INDEX
  VSB - VISIBILITY
$$


USA.gov is the U.S. government's official web portal to all federal, state and local government web resources and services.